Regional Weather Roundup
Issued by NWS

Home | Current Version | Previous Version | Text Only | Print | Product List | Glossary On
Versions: 1 2 3 4 5 6 7 8 9 10 11 12 13 14 15 16 17 18 19 20 21 22 23 24 25 26 27 28 29 30 31 32 33 34 35 36 37 38 39 40 41 42 43 44 45 46 47 48 49 50
000
ASUS43 KDTX 270601
RWRMI
MICHIGAN HOURLY REGIONAL WEATHER ROUNDUP
NATIONAL WEATHER SERVICE DETROIT/PONTIAC MI
200 AM EDT TUE SEP 27 2016

NOTE: "FAIR" INDICATES FEW OR NO CLOUDS BELOW 12,000 FEET WITH NO
SIGNIFICANT WEATHER AND/OR OBSTRUCTION TO VISIBILITY.

MIZ047>049-052>055-059>063-066>070-074>076-081>083-270700-
SOUTHEAST LOWER MICHIGAN

CITY           SKY/WX    TMP DP  RH WIND       PRES   REMARKS
ADRIAN         CLEAR     50  42  74 W6        29.91F
6HR MIN TEMP:  50; 6HR MAX TEMP:  61;

ALMA           CLEAR     49  46  90 SW7       29.81F
ANN ARBOR      CLEAR     46  40  79 SW7       29.87F
BAD AXE        CLEAR     48  43  80 SW7       29.80S
CARO           MOCLDY    46  44  92 CALM      29.80S
DETROIT CITY   CLEAR     56  41  57 W6        29.87F
6HR MIN TEMP:  56; 6HR MAX TEMP:  64;

DETROIT        CLEAR     52  43  71 S9        29.88F
6HR MIN TEMP:  52; 6HR MAX TEMP:  62;

FLINT          PTCLDY    51  44  77 S7        29.84F
6HR MIN TEMP:  51; 6HR MAX TEMP:  59; 6HR PCP:  0.03;

GROSSE ILE     CLEAR     57  41  56 SW7       29.88F
6HR MIN TEMP:  57; 6HR MAX TEMP:  63;

HILLSDALE      CLEAR     52  37  58 SW6       29.89F
HOWELL         CLEAR     52  41  66 SW10      29.84F

CITY           SKY/WX    TMP DP  RH WIND       PRES   REMARKS
JACKSON        CLEAR     54  40  59 SW8       29.86F
6HR MIN TEMP:  53; 6HR MAX TEMP:  59;

LAMBERTVILLE   CLEAR     54  42  63 SW7       29.91F
6HR MIN TEMP:  50; 6HR MAX TEMP:  63;

LANSING        PTCLDY    53  40  61 SW9       29.84F
6HR MIN TEMP:  51; 6HR MAX TEMP:  60; 6HR PCP: TRACE;

LAPEER         FAIR      49  44  83 S6        29.83F
MASON          CLEAR     51  41  68 S3        29.85F
MONROE         CLEAR     53  43  68 SW6       29.89S
6HR MIN TEMP:  49; 6HR MAX TEMP:  59;

MT. CLEMENS    CLEAR     49  42  76 S6        29.84F
6HR MIN TEMP:  46; 6HR MAX TEMP:  63;

PONTIAC        PTCLDY    51  43  74 S5        29.85F
6HR MIN TEMP:  50; 6HR MAX TEMP:  59;

PORT HURON     MOCLDY    48  45  87 CALM      29.85F
TRI CITIES     CLEAR     51  44  77 S9        29.80F
6HR MIN TEMP:  51; 6HR MAX TEMP:  59; 6HR PCP: TRACE;

MIDLAND        MOCLDY    48  42  79 S3        29.78F
6HR MIN TEMP:  48; 6HR MAX TEMP:  56;

TROY           CLEAR     55  39  55 SW6       29.87F
SAGINAW HB     MOCLDY    50  45  81 SW8       29.79F
$$
MIZ043>046-050>051-056>058-064>065-071>073-077>080-270700-
SOUTHWEST LOWER MICHIGAN

CITY           SKY/WX    TMP DP  RH WIND       PRES   REMARKS
BATTLE CREEK   PTCLDY    52  42  69 SW9       29.86F
6HR MIN TEMP:  52; 6HR MAX TEMP:  56;

BENTON HARBOR  CLEAR     64  38  38 W16G28    29.86F
6HR MIN TEMP:  64; 6HR MAX TEMP:  66;

BIG RAPIDS     CLEAR     51  44  78 SW6       29.76F
6HR MIN TEMP:  49; 6HR MAX TEMP:  56; 6HR PCP:  0.01;

COLDWATER      CLEAR     52  37  56 SW7       29.89F
6HR MIN TEMP:  52; 6HR MAX TEMP:  57;

FREMONT        FAIR      54  35  49 SW6       29.78F
HOLLAND        CLEAR     61  43  51 W7        29.83F
6HR MIN TEMP:  61; 6HR MAX TEMP:  66;

GRAND RAPIDS   CLEAR     50  42  74 SW6       29.82F
6HR MIN TEMP:  50; 6HR MAX TEMP:  58; 6HR PCP: TRACE;

IONIA          FAIR      51  41  69 S8        29.82F
6HR MIN TEMP:  49; 6HR MAX TEMP:  58; 6HR PCP:  0.03;

KALAMAZOO      PTCLDY    54  40  59 SW8       29.86F
6HR MIN TEMP:  53; 6HR MAX TEMP:  57;

LUDINGTON      MOCLDY    60  41  48 W14G25    29.74F
6HR MIN TEMP:  60; 6HR MAX TEMP:  62;

MARSHALL       PTCLDY    54  40  60 SW7       29.86F
6HR MIN TEMP:  53; 6HR MAX TEMP:  56;

MOUNT PLEASANT CLEAR     51  42  71 SW5       29.77F
6HR MIN TEMP:  51; 6HR MAX TEMP:  58;

MUSKEGON       PTCLDY    63  39  41 W14       29.79F
6HR MIN TEMP:  58; 6HR MAX TEMP:  65; 6HR PCP: TRACE;

SOUTH HAVEN    CLEAR     65  40  39 W13G21    29.84F
$$
MIZ016>042-270700-
NORTHERN LOWER MICHIGAN

CITY           SKY/WX    TMP DP  RH WIND       PRES   REMARKS
ALPENA         MOCLDY    53  44  71 SW8       29.69F
6HR MIN TEMP:  53; 6HR MAX TEMP:  56; 6HR PCP: TRACE;

BEAVER ISLAND  DRIZZLE   53  49  86 W22G33    29.60S
6HR MIN TEMP:  53; 6HR MAX TEMP:  56;

BELLAIRE       LGT RAIN  52  50  93 CALM      29.67F
6HR MIN TEMP:  52; 6HR MAX TEMP:  56;

CADILLAC       PTCLDY    51  42  73 SW9       29.71F
CHARLEVOIX     RAIN      55  49  79 W18G31    29.66F
6HR MIN TEMP:  54; 6HR MAX TEMP:  58;

FRANKFORT      CLOUDY    60  43  52 W21G31    29.69S
GAYLORD        LGT RAIN  50  46  86 SW10      29.67F
6HR MIN TEMP:  49; 6HR MAX TEMP:  50; 6HR PCP:  0.14;

GRAYLING       MOCLDY    51  46  82 SW7       29.70F
HARBOR SPRINGS LGT RAIN  54  51  87 SW14G24   29.61F
HOUGHTON LAKE  CLOUDY    52  43  71 SW13      29.73F
6HR MIN TEMP:  51; 6HR MAX TEMP:  57; 6HR PCP: TRACE;

MANISTEE       CLOUDY    60  43  53 W14G28    29.71F
OSCODA         PTCLDY    50  43  76 SW10      29.73F
6HR MIN TEMP:  47; 6HR MAX TEMP:  54;

PELLSTON       LGT RAIN  53  48  83 SW7       29.61F
6HR MIN TEMP:  52; 6HR MAX TEMP:  54; 6HR PCP:  0.32;

ROGERS CITY    MOCLDY    52  46  82 SW12G21   29.66F
TRAVERSE CITY  CLOUDY    53  48  83 S3        29.67F
6HR MIN TEMP:  53; 6HR MAX TEMP:  55; 6HR PCP:  0.10;

$$
MIZ007>008-015-270700-
EASTERN UPPER MICHIGAN

CITY           SKY/WX    TMP DP  RH WIND       PRES   REMARKS
KINROSS        CLOUDY    51  46  83 SW6       29.57F
6HR MIN TEMP:  51; 6HR MAX TEMP:  53;

MACKINAC ISLAN CLOUDY    54  49  82 W16G26    29.58F
NEWBERRY       LGT RAIN  49  48  95 SW13      29.55F
6HR MIN TEMP:  49; 6HR MAX TEMP:  52; 6HR PCP:  0.02;

S. S. MARIE    CLOUDY    52  46  80 SW8       29.55F
6HR MIN TEMP:  52; 6HR MAX TEMP:  55; 6HR PCP: TRACE;

MUNISING         N/A     51  47  86 SW8G16    29.53F
6HR MIN TEMP:  51; 6HR MAX TEMP:  54; 6HR PCP:  0.02;

$$
MIZ004>006-011>014-085-270700-
CENTRAL UPPER MICHIGAN

CITY           SKY/WX    TMP DP  RH WIND       PRES   REMARKS
MANISTIQUE     DRIZZLE   52  47  82 W9        29.57F
6HR MIN TEMP:  51; 6HR MAX TEMP:  55;

ESCANABA       MOCLDY    53  45  74 SW10      29.60F
6HR MIN TEMP:  53; 6HR MAX TEMP:  54; 6HR PCP: TRACE;

MENOMINEE      CLOUDY    54  43  66 W7        29.66F
6HR MIN TEMP:  54; 6HR MAX TEMP:  55;

SAWYER-GWINN   DRIZZLE   48  46  93 SW12      29.55S
6HR MIN TEMP:  48; 6HR MAX TEMP:  50;

$$
MIZ001>003-009>011-084-270700-
WESTERN UPPER MICHIGAN

CITY           SKY/WX    TMP DP  RH WIND       PRES   REMARKS
IRON MOUNTAIN  CLOUDY    52  44  74 W9        29.59F
6HR MIN TEMP:  50; 6HR MAX TEMP:  52; 6HR PCP: TRACE;

HOUGHTON       LGT RAIN  51  47  86 W21G36    29.47F
6HR MIN TEMP:  51; 6HR MAX TEMP:  52; 6HR PCP:  0.16;

COPPER HARBOR    N/A     52  49  89 NW12G24   29.43F
6HR MIN TEMP:  52; 6HR MAX TEMP:  54; 6HR PCP:  0.03;

IRONWOOD       LGT RAIN  49  47  93 W14       29.62F FOG
6HR MIN TEMP:  49; 6HR MAX TEMP:  49; 6HR PCP:  0.50;

$$

ABBREVIATIONS USED IN REMARKS
   TC - TEMPERATURE IN CELSIUS
  WCI - WIND CHILL INDEX
   HX - HEAT INDEX
  VSB - VISIBILITY





USA.gov is the U.S. government's official web portal to all federal, state and local government web resources and services.